Starlink 1454

operational
NORAD ID: 45671 Int'l Des: 2020-035 Owner: SPXS Country: US Constellation: starlink
LEOCIRCULARSTARLINK_TYPE

About Starlink 1454

Description loading...

Live Position

Loading 3D Globe...

Upcoming Passes

Altitude History

Altitude vs Time

uPlot chart will show altitude changes over time

Two-Line Element Set

1 45671U 20035Q 25258.36481565 .00001410 00000-0 11348-3 0 9999
2 45671 53.0550 133.6843 0001536 95.7106 264.4058 15.06406969292293
Epoch: Sep 15, 2025 • Age: 24 hours

Current Status

Altitude 551.9 km
Velocity 7.59 km/s
Sub-Earth Point 49.45°N, 60.19°E
Launch Date Jun 4, 2020
Age 5.2 years
Type internet

Technical Details

Classification Payload
Mass 260.00 kg
Dry Mass 248.00 kg
Total Mass 260.00 kg
Length 0.20 m
Diameter 2.80 m
Span 9.00 m
Shape Box + pan
Manufacturer SPXS
Bus Type Starlink
Phase Status In Orbit
Owner/State SPXS/US

Large Constellations

Loading constellations...